Regional Weather Roundup
Issued by NWS

Home | Current Version | Previous Version | Text Only | Print | Product List | Glossary Off
Versions: 1 2 3 4 5 6 7 8 9 10 11 12 13 14 15 16 17 18 19 20 21 22 23 24 25 26 27 28 29 30 31 32 33 34 35 36 37 38 39 40 41 42 43 44 45 46 47 48 49 50

000
ASUS45 KBOU 040807
RWRCO

WEATHER ROUNDUP FOR COLORADO
NATIONAL WEATHER SERVICE DENVER/BOULDER CO
200 AM MDT FRI SEP 04 2015

NOTE: "FAIR" INDICATES FEW OR NO CLOUDS BELOW 12000 FEET WITH NO
SIGNIFICANT WEATHER AND/OR OBSTRUCTIONS TO VISIBILITY.

COZ001>005-013-030-031-040900-
...NORTHWEST COLORADO...

CITY           SKY/WX    TMP DP  RH WIND       PRES   REMARKS
CRAIG          CLEAR     51  44  77 CALM      30.05F
HAYDEN         CLEAR     52  43  71 E13       30.09S
MEEKER         CLEAR     56  46  69 NE8       30.07R
MOUNT WERNER   NOT AVBL
STEAMBOAT SPGS CLEAR     46  43  87 CALM      30.13S
WALDEN         CLEAR     39  37  93 CALM      30.20S
$$

COZ006>008-011-040900-
...WEST CENTRAL VALLEYS...

CITY           SKY/WX    TMP DP  RH WIND       PRES   REMARKS
GRAND JUNCTION CLEAR     66  50  56 E17       29.96R
MONTROSE       PTCLDY    60  47  61 SE7       30.07S
EAGLE          CLEAR     50  48  93 CALM      30.18S
RIFLE          CLEAR     54  50  86 CALM      30.04S
DELTA          CLEAR     62  50  66 E7        30.03R
NUCLA          MOCLDY    63  39  42 E6        30.11S
$$

COZ017>023-064>068-040900-
...SOUTHWEST COLORADO...

CITY           SKY/WX    TMP DP  RH WIND       PRES   REMARKS
DURANGO        MOCLDY    56  41  57 N3        30.15S
CORTEZ         PTCLDY    61  44  53 NE8       30.09R
PAGOSA SPRINGS MOCLDY    50  45  83 CALM      30.23S
TELLURIDE      PTCLDY    52  41  66 CALM      30.32S
WOLF CREEK PAS NOT AVBL
$$

COZ009-010-012-014-032>034-037-058>063-040900-
...CENTRAL COLORADO...

CITY           SKY/WX    TMP DP  RH WIND       PRES   REMARKS
ASPEN          CLEAR     47  42  83 S7        30.20S
BUENA VISTA    MOCLDY    47  43  84 NW6       30.23S
COPPER MTN     CLEAR     46  34  61 SW10G16   30.48S
BERTHOUD PASS  FAIR      39  28  65 W22G32    30.49S
COTTONWOOD PAS PTCLDY    55  37  50 CALM      30.34S
GUNNISON       CLEAR     50  45  81 CALM      30.26S
KREMMLING      FOG       43  39  87 CALM      30.23R VSB 1/2
LEADVILLE      CLEAR     36  36 100 NE6       30.33S
MONARCH PASS   CLOUDY    43  37  81 W17       30.58S
SALIDA         PTCLDY    56  45  66 NW12      30.27S
SUNLIGHT       CLEAR     46  43  87 CALM      30.40S
WILKERSON PASS PTCLDY    45  37  76 SW9G16    30.44S
$$

COZ069>075-040900-
...SAN LUIS VALLEY/SANGRE DE CRISTO MOUNTAINS...

CITY           SKY/WX    TMP DP  RH WIND       PRES   REMARKS
ALAMOSA        MOCLDY    48  45  89 NW5       30.21R
LA VETA PASS   PTCLDY    48  37  66 S10       30.35F
SAGUACHE       PTCLDY    46  45  93 N7        30.24S
$$

COZ035-036-038>040-040900-
...NORTHERN COLORADO FRONT RANGE...

CITY           SKY/WX    TMP DP  RH WIND       PRES   REMARKS
DENVER INTL AP PTCLDY    57  52  83 S6        29.98F
DMNS CITY PARK   N/A     58  53  81 SW1G9     29.99S
AURORA         PTCLDY    60  52  74 S2        30.01S
FRONT RANGE AP CLEAR     54  50  87 S5        30.00S
ERIE MUNI ARPT CLEAR     51  49  92 S3        29.97S
BOULDER MUN AP CLEAR     55  50  82 CALM      29.97F
CENTENNIAL     PTCLDY    58  51  78 S6        30.02S
BROOMFIELD     CLEAR     55  46  71 CALM      30.00S
FORT COLLINS   CLEAR     57  48  72 CALM      29.98S
LONGMONT       CLEAR     53  48  82 CALM      29.98F
$$

COZ041-046-047-076>085-087-088-040900-
...PIKES PEAK/PALMER DIVIDE AND SOUTHERN FOOTHILLS...

CITY           SKY/WX    TMP DP  RH WIND       PRES   REMARKS
COLO. SPRINGS  MOCLDY    60  48  64 N6        30.07
A. F. ACADEMY  PTCLDY    58  46  65 N6        30.08S
ELLICOTT       PTCLDY   N/A N/A N/A E5        30.05S
FALCON         PTCLDY    58  46  65 MISG      30.10S
FORT CARSON    PTCLDY    58  49  72 NW6       30.03R
LIMON          CLEAR     56  53  90 W6        30.00S
MONUMENT HILL  PTCLDY    54  45  71 SW14      30.11S
TRINIDAD       CLEAR     59  46  62 W10       30.05F
$$

COZ042>045-048>051-090-091-040900-
...NORTHEAST COLORADO...

CITY           SKY/WX    TMP DP  RH WIND       PRES   REMARKS
GREELEY ARPT   CLEAR     52  46  82 CALM      29.97S
AKRON          CLEAR     61  54  77 W10       29.93F
BURLINGTON     PTCLDY    61  52  72 W10       29.91R
WRAY           CLOUDY    63  60  87 W6        29.86S
STERLING       CLEAR     55  54  94 S6        29.89S
HOLYOKE        MOCLDY    68  54  60 NW5       29.86S
FORT MORGAN    CLEAR     55  49  82 W7        29.95R
$$

COZ086-089-092>099-040900-
...SOUTHEAST COLORADO...

CITY           SKY/WX    TMP DP  RH WIND       PRES   REMARKS
PUEBLO         PTCLDY    61  54  77 NW3       29.98R
LA JUNTA       CLEAR     70  51  51 W8        29.94S
LAMAR          CLEAR     62  53  72 W6        29.87S
SPRINGFIELD      N/A     62  48  60 W7        29.94S
$$




USA.gov is the U.S. government's official web portal to all federal, state and local government web resources and services.